Wind_Speed
1 2 4 9 11 9 9 9 7 6 5 5 4 4 7 9 11 11 11 13 14 15 16 17 20 19 18 16 14 14 14 13 11 10 10 11 10 11 12 11 13 14 14 15 15 16 14 12 11 9 8 7 8 9 11 10 10 11 10 12 16 17 18 19 20 21 20 20 20 21 20 19 19 19 19 19 17 15 13 13 14 14 14 14 14
2 2 3 7 11 11 11 10 9 6 5 5 4 4 7 9 11 12 12 12 14 16 16 18 20 19 18 17 15 14 13 13 11 9 10 10 9 12 13 11 13 13 13 14 15 16 15 12 10 9 8 8 9 9 10 10 9 10 10 12 14 15 18 20 20 20 20 20 21 20 20 19 18 19 19 18 17 14 13 13 14 13 13 13 13
1 1 2 6 12 14 13 11 10 8 6 5 4 4 7 9 10 12 14 14 15 15 17 19 20 19 18 16 15 14 12 13 11 8 9 9 11 12 12 12 12 13 12 13 14 15 14 12 9 8 7 6 8 8 9 10 8 7 10 11 11 13 18 20 19 19 21 21 21 20 19 19 19 18 18 18 16 14 14 14 13 13 12 13 13
3 3 2 5 10 14 13 11 11 10 7 6 5 5 7 9 8 10 12 16 17 16 18 20 21 19 17 16 15 13 13 12 10 9 10 11 12 12 12 11 12 13 12 13 14 14 13 11 9 7 5 5 7 7 8 10 8 7 9 9 9 12 17 19 17 18 20 21 20 17 15 15 17 18 18 17 16 15 14 13 13 12 12 13 13
5 5 3 1 6 13 14 11 11 11 10 8 6 6 7 8 8 9 10 15 18 18 19 19 21 19 17 16 14 14 14 12 10 11 12 14 13 12 12 11 11 13 12 13 14 13 11 9 8 6 6 6 6 7 8 10 9 8 8 8 10 13 17 18 16 16 19 22 19 14 11 11 14 17 18 17 16 15 14 13 13 12 12 13 12
3 3 3 2 4 12 15 14 13 12 12 9 8 7 8 9 9 10 10 11 15 20 20 18 20 18 16 16 14 13 14 12 11 12 13 15 14 12 12 11 10 11 12 13 14 12 9 7 7 7 7 6 6 8 10 11 9 8 8 8 10 13 16 16 14 14 17 19 17 12 10 10 12 15 18 17 16 15 14 13 12 12 11 12 11
1 1 3 3 5 13 16 15 15 14 13 11 10 9 9 10 11 11 10 11 13 18 20 21 21 17 16 15 13 12 12 11 9 12 14 15 15 13 13 11 11 11 12 13 11 9 8 7 6 6 6 6 9 12 12 11 10 9 9 9 10 13 15 15 13 13 14 13 12 12 10 9 10 13 17 17 16 15 14 13 12 11 11 11 11
2 3 4 4 7 14 16 15 15 15 13 13 11 9 9 11 12 12 11 11 14 18 18 21 20 17 17 15 13 11 12 11 10 13 15 15 15 14 12 11 11 11 11 11 9 7 7 6 5 6 7 8 12 14 13 11 10 9 9 9 10 12 14 14 12 12 12 9 10 12 9 9 11 13 17 17 15 15 13 12 11 10 10 11 11
5 5 5 5 10 16 17 15 15 15 13 13 12 10 10 11 12 13 13 13 15 17 18 18 17 17 17 15 14 12 12 12 12 15 15 15 13 12 11 9 9 10 9 8 7 7 6 5 5 7 8 11 14 15 14 12 11 9 9 10 11 12 13 13 12 11 11 7 9 11 10 9 9 13 16 16 15 14 13 12 11 10 10 11 10
6 6 6 6 13 17 16 14 14 14 12 13 13 11 11 11 12 13 15 16 15 16 17 18 17 16 15 14 14 13 14 12 12 15 16 14 12 10 9 9 8 8 8 7 7 6 5 5 6 8 9 13 17 16 14 12 11 10 9 10 11 11 12 12 11 10 9 6 7 10 13 10 8 12 15 15 13 12 12 12 11 9 10 10 10
6 6 6 6 10 13 15 15 15 14 12 13 13 12 12 12 12 12 14 16 17 16 15 16 16 16 14 13 13 14 14 12 13 15 14 12 10 9 9 8 8 8 7 7 6 5 5 5 7 8 8 13 18 16 14 11 11 10 10 11 12 11 11 12 9 9 9 7 6 9 14 12 9 12 13 13 12 11 11 11 10 9 9 9 10
6 5 5 5 5 8 14 17 18 18 15 15 14 13 12 11 12 11 12 14 16 17 16 16 16 15 14 13 12 13 13 12 15 14 12 11 9 9 8 8 7 8 8 7 6 5 5 6 7 8 8 13 17 17 13 11 10 10 10 12 12 12 12 12 9 7 9 6 7 11 12 8 9 12 12 12 11 10 10 9 9 8 9 9 10
7 5 3 4 4 9 15 17 18 20 16 16 15 14 13 11 12 11 12 13 15 16 17 17 16 16 15 14 13 14 14 13 14 12 10 11 10 8 8 7 8 8 8 7 7 6 7 7 8 8 9 15 17 16 13 11 10 9 10 11 12 13 13 12 10 7 8 7 6 10 8 7 9 11 12 12 10 9 10 8 8 8 9 9 10
8 8 5 5 3 7 12 12 13 17 17 16 16 16 15 12 12 12 11 12 14 16 17 17 16 16 15 14 14 14 14 12 13 12 10 11 9 8 8 8 8 8 8 8 7 7 8 8 8 7 10 16 17 14 12 10 9 9 10 11 13 14 14 12 10 8 8 8 7 8 7 8 10 10 11 11 10 9 9 8 8 8 9 9 10
8 9 8 8 7 4 2 3 11 18 20 20 17 16 16 14 13 12 12 12 14 16 17 17 16 16 16 15 15 15 13 11 12 12 10 10 10 9 8 9 9 9 9 9 7 7 7 8 8 7 11 17 17 14 11 10 10 10 10 12 12 14 14 11 7 7 8 6 7 7 5 7 10 11 11 10 9 9 8 8 8 8 9 9 9
9 8 8 9 9 10 12 11 12 16 18 17 15 14 14 15 16 14 12 12 14 16 17 17 17 17 16 16 16 15 12 11 12 11 10 11 11 10 9 10 10 10 10 9 9 9 8 8 8 8 12 16 17 14 12 10 10 10 10 12 12 13 16 12 8 9 8 6 6 6 3 6 10 10 11 10 9 8 8 8 8 8 9 8 9
9 8 8 9 9 12 13 15 15 12 10 11 12 12 13 14 16 16 12 12 13 15 16 17 17 17 17 16 15 14 13 13 12 11 12 12 11 10 10 10 10 10 10 9 8 9 9 8 9 9 11 13 13 13 13 11 10 11 10 11 13 14 16 15 10 11 11 10 8 5 4 6 8 9 10 9 8 8 8 9 9 8 8 7 8
9 9 9 9 10 11 12 14 16 15 13 10 10 11 12 13 15 15 12 12 13 14 15 17 16 16 16 15 14 14 14 14 13 14 14 13 11 10 11 11 10 11 10 8 7 8 8 8 9 10 10 11 10 11 12 11 10 11 10 11 13 13 16 15 10 10 13 12 9 6 5 8 8 8 8 8 8 8 8 9 9 9 8 7 8
9 8 9 10 10 10 10 11 12 13 14 10 8 10 11 13 15 15 13 11 12 13 15 17 16 15 15 14 14 15 15 14 14 14 14 14 12 10 11 11 10 11 10 9 8 8 9 8 9 10 10 9 8 10 10 9 9 11 11 11 13 13 13 11 6 8 10 11 10 7 8 11 10 8 8 7 7 8 9 9 9 9 8 8 7
9 8 8 9 11 10 8 8 9 10 11 9 7 10 12 14 15 14 13 11 11 12 15 17 16 15 14 13 14 14 14 12 12 12 12 14 14 12 12 12 11 11 10 9 8 9 10 8 9 9 9 9 9 9 8 7 7 10 10 10 12 12 10 7 7 8 7 10 11 10 11 12 11 9 9 7 8 9 9 9 9 9 8 8 7
9 9 9 8 9 10 9 7 7 8 8 8 6 8 12 14 14 13 13 12 10 12 15 16 15 13 13 13 13 14 13 11 11 11 12 13 14 13 14 14 12 12 11 10 8 9 9 9 9 10 10 9 9 8 6 5 5 7 8 9 10 8 7 8 9 7 7 10 10 12 13 13 12 11 10 9 8 9 9 9 9 9 9 8 7
7 8 10 10 9 8 9 7 5 6 6 7 6 6 11 14 15 13 14 13 10 11 13 14 13 11 12 13 13 14 13 12 12 11 13 15 15 13 14 16 14 12 12 10 9 8 8 8 9 10 10 9 8 7 5 4 5 6 7 8 8 6 6 8 8 6 8 9 11 14 15 14 14 13 11 10 9 9 9 9 9 8 8 8 7
7 8 10 12 11 8 7 6 4 3 3 5 6 5 9 13 15 14 14 14 12 12 12 13 13 11 11 12 12 13 12 12 11 9 12 15 17 15 14 17 16 14 12 11 9 7 8 8 7 7 8 7 6 5 5 4 4 6 8 8 7 6 7 7 7 6 7 9 12 15 15 16 16 14 13 11 10 10 10 9 8 7 7 7 7
8 8 9 10 9 9 7 4 3 2 2 3 4 3 8 12 14 15 14 14 14 14 13 13 12 12 12 11 12 13 12 11 10 9 10 12 18 18 15 17 17 15 13 11 9 7 8 8 7 6 6 6 5 5 6 5 5 5 8 7 7 8 8 6 6 5 7 9 11 13 15 16 16 15 14 12 11 11 11 9 8 7 7 7 6
8 7 7 9 8 8 7 5 3 2 2 2 1 1 6 12 15 15 14 14 14 14 14 13 12 13 14 12 12 13 12 11 11 11 9 10 16 19 18 19 19 16 13 11 10 9 8 9 9 8 7 7 7 7 7 7 6 6 7 7 7 9 8 7 6 6 7 9 11 13 14 15 16 15 14 14 12 12 12 10 9 8 8 7 6
6 5 5 7 7 6 6 6 4 2 2 1 0 1 3 10 14 15 14 13 15 15 15 15 14 15 14 12 12 14 13 11 11 11 10 11 13 19 22 20 18 16 14 13 12 10 10 10 10 10 9 8 8 7 7 7 7 6 6 7 8 8 8 7 7 7 7 8 11 13 14 15 15 15 15 15 13 13 13 11 10 9 8 8 7
5 5 6 7 7 6 6 5 4 3 2 0 0 1 1 8 13 16 16 16 16 15 15 16 16 16 16 15 13 12 13 12 12 11 12 11 12 18 21 18 18 17 15 15 13 11 11 11 9 10 9 8 8 7 7 8 8 8 7 8 8 8 8 7 7 7 6 7 9 12 13 14 15 16 16 16 14 15 15 13 12 11 9 8 7
6 7 8 8 8 7 6 4 3 3 3 2 2 2 3 5 9 13 17 18 18 15 15 17 17 17 17 17 15 13 14 14 14 14 14 13 12 17 18 17 19 17 15 15 14 11 12 11 9 9 9 8 9 8 7 9 10 10 9 8 8 9 8 8 8 7 6 5 8 12 13 13 15 16 17 17 16 16 16 15 13 12 10 9 8
6 6 7 8 8 7 6 4 3 1 2 3 4 4 5 6 5 7 11 16 18 17 16 17 17 18 19 19 18 16 15 16 17 17 16 15 15 17 18 18 18 17 15 15 14 13 11 11 9 8 8 8 8 8 8 10 10 11 10 9 8 9 9 8 8 7 7 6 6 10 11 11 14 16 17 17 17 17 17 16 14 13 12 11 9
5 5 6 7 8 7 6 5 4 2 1 2 4 6 6 6 6 4 5 7 12 16 16 17 18 19 20 20 21 20 18 19 19 18 17 17 17 18 19 19 19 18 17 14 14 14 12 11 9 8 9 9 8 9 9 9 10 12 11 10 9 9 8 8 8 7 7 7 6 9 11 11 12 14 17 18 17 18 17 15 15 14 13 13 11
5 5 6 7 8 8 7 5 4 4 4 2 3 5 7 8 8 7 6 4 6 11 12 13 18 22 22 21 21 22 21 22 20 17 18 17 16 18 20 19 20 20 16 13 14 14 14 13 11 10 10 10 10 10 9 8 10 12 12 12 10 10 10 8 8 8 7 7 6 8 11 11 12 13 17 19 19 18 17 16 15 15 15 14 12
6 5 5 7 9 10 8 7 6 5 4 4 2 3 5 7 9 9 10 9 8 9 9 8 11 17 22 22 21 22 23 24 22 20 20 19 19 21 21 20 20 20 16 14 14 13 14 14 13 11 10 10 10 11 10 8 10 12 13 13 12 12 11 9 9 9 8 8 7 7 8 10 11 13 16 19 20 19 19 17 16 17 16 15 13
7 6 7 9 10 10 11 10 8 7 6 4 2 0 2 5 7 9 11 11 11 12 12 11 11 11 15 20 21 20 22 23 24 23 21 20 22 24 23 22 21 21 19 17 15 14 14 15 15 13 12 11 9 10 10 9 12 13 13 14 13 12 12 10 10 9 9 9 8 8 8 8 9 11 14 19 21 20 19 18 17 18 17 15 14
6 6 8 9 9 11 13 13 12 11 10 8 7 5 4 3 5 7 9 10 12 13 13 13 13 12 13 16 18 20 23 24 23 24 24 22 22 24 25 23 20 21 22 20 17 16 15 16 17 15 14 12 9 9 9 10 13 14 14 15 14 13 12 11 10 10 9 9 10 9 8 8 8 10 12 16 21 22 19 18 18 18 18 17 16
7 5 7 7 8 11 13 14 14 14 14 13 13 11 10 8 7 7 7 8 10 12 13 12 11 12 13 15 17 19 22 25 25 24 25 25 24 24 25 23 19 19 22 22 20 19 18 18 19 16 12 10 10 10 10 11 13 14 14 15 15 14 12 12 12 11 10 10 10 10 10 9 9 9 10 12 17 21 21 20 19 18 18 18 17
7 6 5 5 6 9 11 12 12 14 14 15 15 15 14 12 11 10 9 7 8 10 12 12 10 9 10 13 16 18 19 23 27 27 25 25 27 27 26 26 23 20 21 24 22 19 20 19 19 18 13 11 11 11 12 12 12 13 14 15 16 15 13 13 14 12 11 11 11 11 11 10 10 11 11 10 12 18 21 22 22 20 20 19 18
8 6 5 3 3 4 6 8 9 11 12 13 15 16 15 14 13 12 11 10 9 9 11 12 10 9 9 10 12 16 19 20 24 28 29 27 28 27 27 29 29 26 24 27 26 20 19 20 20 21 18 13 11 12 13 13 12 13 14 15 16 16 15 15 15 13 12 13 13 12 12 10 11 12 11 11 11 13 18 22 24 23 22 20 19
9 7 6 5 3 2 1 2 5 7 8 10 12 14 15 15 15 15 13 11 10 10 10 11 11 10 10 10 10 12 17 20 21 25 30 33 32 30 29 30 31 32 31 32 31 25 21 22 20 21 20 16 12 12 13 13 12 12 13 15 15 16 16 15 15 14 14 15 13 13 13 12 12 12 11 11 12 12 14 18 23 25 24 23 21
11 9 8 7 6 5 4 4 4 5 6 8 9 12 14 15 16 18 18 15 12 11 11 11 11 11 11 11 11 11 13 18 21 23 26 31 34 34 34 33 32 33 34 34 34 31 28 26 23 21 22 19 14 12 13 12 12 12 12 14 15 16 16 16 16 16 15 15 14 14 14 14 13 13 12 11 12 13 13 13 17 21 22 24 23
13 11 10 8 8 7 6 7 6 6 6 7 8 10 12 13 15 17 21 20 16 12 11 11 11 10 10 11 12 13 13 15 19 22 24 27 29 31 32 35 35 33 32 33 34 33 32 30 29 25 23 23 18 13 13 13 12 12 12 13 14 15 16 16 17 16 15 15 16 16 15 15 14 14 14 12 12 13 15 14 13 14 15 19 23
14 13 12 10 8 8 8 8 7 6 6 7 7 8 10 12 15 17 20 22 19 14 11 11 11 11 9 10 11 12 14 15 16 18 21 24 27 27 28 31 34 35 33 33 32 32 33 32 31 29 25 26 22 15 15 15 13 13 14 14 14 14 15 17 17 16 17 17 18 17 16 15 15 15 14 14 13 14 15 15 14 13 12 15 19
16 15 13 11 10 9 10 10 8 7 7 6 7 8 10 12 14 17 20 22 20 15 12 11 12 12 11 10 11 12 13 14 15 16 17 19 22 25 27 28 29 32 34 34 32 32 34 33 31 31 29 27 24 17 17 18 16 15 15 14 14 15 16 18 18 18 19 20 19 18 17 16 15 16 15 15 15 15 16 17 17 16 14 14 15
18 16 14 13 11 11 11 11 10 8 8 7 6 8 10 11 14 16 19 21 20 15 12 12 12 12 13 11 10 11 13 13 13 14 15 15 17 19 22 24 26 28 31 33 32 29 32 34 33 32 30 29 26 20 20 22 18 15 15 14 14 15 16 19 20 21 22 21 20 18 18 17 17 16 17 17 16 16 17 18 20 19 18 17 16
19 17 15 14 13 13 14 13 11 10 9 9 8 8 10 12 15 17 19 22 22 16 11 11 11 11 11 8 7 9 11 11 10 9 10 11 13 15 14 15 19 23 27 31 32 29 28 31 32 33 32 33 32 23 22 24 21 17 16 15 15 15 15 17 20 22 23 22 22 19 18 17 18 17 17 17 16 17 18 19 21 21 22 21 19
18 17 16 16 15 15 15 14 13 12 11 10 9 9 10 12 15 18 20 22 23 18 12 10 11 10 8 6 7 10 10 10 10 8 7 7 10 13 13 12 13 16 22 27 31 31 30 31 31 32 33 37 36 27 23 25 25 22 19 16 14 15 15 14 14 16 19 21 22 21 18 18 19 18 17 17 16 18 20 21 22 23 25 26 23
17 16 16 16 16 17 17 16 14 14 12 10 9 9 10 11 13 15 17 20 21 18 14 12 11 10 9 9 9 10 10 10 11 10 8 8 9 12 14 14 13 13 16 21 26 29 30 31 32 32 34 37 38 33 27 25 26 25 23 20 15 13 12 12 12 12 14 17 19 20 20 19 20 20 17 17 17 17 19 21 22 24 27 30 28
16 16 16 16 17 19 18 17 16 16 14 11 10 10 10 10 12 13 14 17 19 18 16 14 12 10 10 12 11 10 10 9 10 11 11 11 11 11 13 14 16 16 15 16 22 26 26 27 29 33 35 36 39 38 32 27 26 27 26 24 19 15 11 11 13 12 11 14 16 19 20 21 22 21 19 18 17 16 16 18 20 23 26 28 27
16 16 15 16 18 19 19 18 18 18 16 14 12 11 11 10 10 11 12 14 16 18 18 16 14 12 10 11 12 12 11 9 9 10 11 11 10 10 11 12 15 18 17 16 18 23 27 28 28 31 34 36 39 39 36 33 29 27 27 26 23 20 16 13 13 12 12 13 14 16 20 21 22 22 20 18 17 16 16 17 17 18 20 22 23
16 15 15 16 18 20 20 20 20 19 19 16 13 12 12 10 10 10 11 12 13 16 17 17 17 15 12 11 11 12 12 11 10 9 10 10 9 9 11 11 12 15 18 21 20 20 24 28 29 29 31 35 38 39 40 40 34 29 28 29 28 25 22 19 17 15 15 16 15 15 17 19 21 22 21 19 19 18 17 17 16 15 16 18 20
16 15 16 17 19 20 21 21 22 21 20 17 15 14 13 11 10 10 10 10 10 12 15 17 17 17 16 14 12 11 12 12 12 12 11 10 10 10 10 11 11 12 16 22 24 24 25 29 30 29 30 32 36 39 41 41 39 36 33 32 31 28 25 24 22 21 19 19 19 16 15 18 20 20 21 21 20 19 18 16 16 16 15 18 19
17 17 18 18 20 21 22 22 23 23 21 19 17 15 14 12 11 10 10 10 9 9 11 14 16 17 17 16 15 13 12 12 14 14 13 13 12 11 10 11 11 12 15 19 22 25 29 30 29 30 32 33 35 38 40 41 43 44 40 35 33 30 26 26 24 23 22 22 20 17 16 17 18 18 19 22 20 19 18 16 17 17 16 18 19
Wind_Direction
25 212 195 184 167 172 171 147 141 125 113 98 94 121 133 140 151 167 172 175 173 170 167 158 153 152 151 146 139 135 130 126 121 124 133 141 136 132 135 135 138 137 135 137 142 139 132 131 127 114 96 97 112 118 118 112 114 118 126 142 144 145 147 151 153 148 142 131 116 109 110 109 106 107 106 104 103 102 103 101 96 88 87 89 91
12 271 201 189 174 176 177 159 146 137 127 108 102 118 134 141 150 166 168 169 170 169 167 162 157 156 157 149 145 138 131 130 122 122 130 136 131 129 132 132 139 142 137 136 141 140 133 133 127 116 99 89 105 114 111 108 114 119 133 145 144 146 150 155 154 146 139 125 115 113 112 112 109 108 107 104 104 103 101 97 92 88 88 88 87
333 250 198 204 192 179 176 172 152 142 136 115 111 112 133 141 154 172 166 162 164 167 167 165 162 160 159 152 149 141 135 131 122 121 120 128 131 132 131 130 141 145 140 134 140 143 135 137 137 127 108 89 104 113 112 118 123 123 135 146 148 151 157 158 152 144 134 121 117 116 115 114 110 109 108 105 103 100 97 94 92 89 88 85 84
283 255 227 203 194 180 171 177 162 147 139 125 119 113 130 139 155 168 163 164 162 162 167 165 162 162 160 155 151 142 141 135 130 132 129 133 130 133 134 133 146 150 146 139 139 143 139 139 146 141 123 102 106 115 123 130 135 127 133 146 152 157 161 159 151 142 130 117 110 107 111 111 110 111 109 106 104 101 96 92 89 85 83 86 87
276 262 257 198 192 185 172 177 173 152 142 131 125 122 128 133 142 152 161 169 164 161 166 163 159 162 159 152 151 147 147 143 144 146 144 142 132 136 143 142 152 157 150 143 141 143 142 137 144 146 135 123 113 126 138 142 144 134 134 139 148 160 162 159 151 141 128 113 100 95 107 107 109 112 109 107 105 101 96 90 86 81 82 87 88
276 261 227 205 193 186 176 174 168 149 142 133 125 126 130 132 135 145 153 159 163 163 161 158 156 158 155 151 154 154 153 150 152 152 149 143 138 147 152 147 152 161 156 148 145 144 142 137 142 140 132 126 128 145 149 149 146 140 139 134 147 160 159 157 150 140 127 109 101 104 112 111 110 113 112 109 105 100 95 90 85 83 85 87 87
300 157 183 188 183 181 176 168 156 144 141 135 128 126 130 138 139 143 142 138 153 164 158 153 156 158 157 157 161 161 159 155 157 156 150 145 144 151 153 146 148 157 156 149 143 143 142 142 146 141 136 131 142 151 154 157 148 146 146 137 150 158 161 158 150 145 128 107 109 113 112 116 112 116 115 110 106 101 97 92 88 87 87 87 88
83 127 154 157 174 176 173 166 152 149 146 136 132 129 130 140 143 141 143 134 139 157 154 149 157 163 162 164 167 165 162 157 159 160 154 150 147 149 151 148 151 153 152 149 145 146 145 148 155 151 150 143 151 155 156 162 151 151 155 145 153 159 165 160 155 148 122 106 118 115 117 123 117 119 116 110 108 104 99 94 91 89 88 89 89
99 126 120 137 172 173 171 168 154 153 151 141 135 130 129 138 145 143 146 143 137 144 147 151 163 167 165 166 167 166 166 162 161 162 156 151 149 151 153 153 156 154 152 152 149 149 149 155 161 157 157 154 159 160 155 164 155 153 164 152 154 162 165 164 163 143 113 111 124 119 120 115 117 121 116 112 110 108 104 98 93 88 89 90 89
100 116 102 130 168 169 171 172 158 151 147 141 138 131 127 132 143 146 150 155 151 149 152 160 168 168 167 168 169 169 168 166 164 161 155 152 152 154 155 157 157 153 150 148 149 147 153 165 168 157 157 164 164 164 159 166 159 154 168 156 155 162 164 168 162 134 116 120 120 127 127 117 125 121 114 110 107 107 102 99 95 90 92 91 89
90 106 98 116 152 164 173 176 164 153 146 140 136 133 131 131 139 146 152 160 161 162 163 165 168 169 171 173 175 172 169 166 163 158 150 149 152 156 156 158 155 150 146 146 152 150 157 169 178 162 157 171 169 170 164 166 165 160 169 158 156 161 166 163 147 135 126 123 126 129 123 118 127 117 111 108 102 102 98 96 95 94 95 92 90
72 91 90 94 126 170 181 186 173 155 148 143 138 136 138 137 138 143 151 161 165 167 169 169 171 173 174 177 179 171 168 166 163 157 147 152 155 157 159 158 155 150 149 152 157 155 160 166 177 170 164 173 172 174 169 168 171 169 172 163 158 160 170 157 137 142 128 133 140 113 104 111 125 117 110 106 102 101 97 96 95 95 94 90 89
62 74 72 77 121 180 191 202 181 158 152 148 143 140 142 145 140 142 148 157 164 167 168 170 173 175 174 176 178 172 166 164 164 159 152 158 157 161 168 165 155 150 152 155 159 158 159 161 165 164 165 171 174 174 169 172 176 179 182 170 161 162 173 160 139 139 136 151 136 109 113 130 130 120 112 106 104 103 100 100 98 97 95 92 90
55 61 58 50 83 185 199 208 174 154 158 158 151 142 143 149 146 143 143 151 160 163 164 168 172 173 172 172 173 168 162 163 168 167 160 162 162 169 174 163 153 150 152 151 155 157 156 161 158 153 162 172 178 176 172 177 183 190 191 180 168 164 171 164 145 145 158 165 139 128 137 137 135 125 117 111 109 111 108 108 106 102 98 97 95
51 53 49 45 51 31 18 133 148 158 163 161 155 144 145 152 151 144 137 147 158 161 164 167 171 170 169 168 166 167 169 170 172 174 168 167 169 171 169 156 150 149 151 150 151 156 161 166 163 156 162 174 183 183 180 183 188 192 194 190 176 167 165 156 152 164 171 168 145 139 134 147 148 131 124 120 119 121 119 118 113 108 102 102 102
45 48 41 39 52 42 38 67 120 156 164 156 150 146 151 153 151 148 136 143 158 162 165 168 170 171 172 172 171 172 178 178 175 178 176 174 172 170 165 152 149 152 153 155 158 162 167 176 178 170 162 174 188 190 188 187 189 189 191 192 182 175 165 153 166 178 170 164 150 134 139 167 151 135 131 128 129 131 130 127 118 113 110 110 106
32 40 41 36 42 53 52 55 76 103 121 131 142 150 157 158 153 152 140 140 156 164 167 170 171 174 177 176 174 174 177 178 177 179 181 179 172 168 165 153 152 158 157 158 163 165 170 187 192 182 168 172 188 196 197 192 189 188 189 196 188 180 173 165 169 182 177 167 156 138 164 186 158 140 134 133 138 137 135 132 125 122 120 117 108
14 25 38 43 36 45 57 55 64 72 72 94 131 149 162 165 156 153 145 139 153 163 166 170 171 174 176 175 172 173 178 180 178 179 183 181 173 171 166 159 160 161 158 156 157 158 163 187 192 186 179 171 180 192 197 195 192 191 191 202 195 183 181 173 166 188 187 172 158 150 178 190 170 146 138 140 141 142 142 136 133 132 128 121 112
352 1 18 43 43 34 44 52 61 69 68 79 118 147 169 170 160 155 153 145 150 159 163 167 170 173 175 175 173 176 181 182 181 184 186 181 173 176 173 164 166 166 159 152 145 143 148 171 187 185 182 172 175 182 185 195 200 201 198 207 203 188 181 168 166 191 192 183 170 171 186 183 173 156 150 149 147 150 149 143 143 141 134 129 123
346 348 355 31 46 40 36 36 39 50 63 69 102 149 174 174 165 161 162 157 153 157 161 165 169 174 178 176 174 177 182 182 181 184 189 185 176 177 177 170 172 170 160 153 139 130 133 148 174 177 173 167 170 174 175 188 201 207 203 208 207 188 170 168 187 181 187 198 185 189 193 179 174 166 161 162 159 159 156 155 154 151 146 142 136
354 350 346 8 32 41 43 34 28 25 42 57 82 145 168 173 172 168 168 169 163 161 164 166 169 177 181 177 178 178 177 180 180 185 192 190 183 181 180 172 176 176 163 158 143 129 125 124 141 151 152 152 153 159 162 163 178 195 193 202 204 181 170 189 193 181 189 197 188 197 194 181 180 174 174 175 167 164 164 165 165 164 157 153 150
1 352 338 343 356 22 43 42 44 34 30 51 69 132 166 174 174 171 169 172 171 165 169 172 171 181 183 176 183 180 176 187 188 191 194 188 187 189 186 176 176 180 169 164 155 139 130 116 116 130 140 142 136 137 145 149 156 163 170 190 186 169 200 198 182 189 198 189 190 196 190 185 184 181 183 182 174 173 174 174 178 178 166 162 159
351 350 332 329 336 346 18 33 45 57 45 55 70 122 171 179 175 172 169 173 173 166 175 183 178 182 187 179 187 184 179 195 196 192 195 192 192 192 191 183 177 179 175 171 169 157 145 132 119 124 137 138 129 138 155 168 168 155 160 173 168 178 212 196 173 190 199 194 199 195 188 188 187 186 188 187 186 181 182 187 188 188 177 173 170
339 345 333 326 332 328 335 359 22 46 66 69 68 117 179 184 177 175 174 177 177 172 178 191 188 187 193 189 192 192 186 198 202 194 198 197 192 188 188 187 181 179 178 177 181 178 166 158 150 148 152 149 153 168 170 180 194 177 170 171 176 198 205 187 176 189 200 202 203 195 190 192 189 189 191 193 194 188 189 195 197 196 190 188 182
340 351 339 328 335 331 321 321 343 3 31 81 60 70 191 190 183 182 181 180 178 176 181 191 194 194 200 199 197 199 193 197 205 201 202 198 190 186 185 187 184 179 180 182 188 191 182 182 181 174 175 176 182 188 183 187 196 194 190 185 192 204 197 188 186 189 205 209 206 197 194 198 194 191 194 198 199 194 195 201 207 205 199 199 191
6 12 353 338 345 343 325 309 301 295 336 40 56 347 199 194 192 190 187 183 180 181 185 192 199 198 200 202 203 206 201 200 208 204 200 204 198 189 186 186 185 182 183 187 191 193 185 192 195 186 188 190 193 198 197 196 197 199 200 199 203 202 192 194 199 195 205 215 209 199 198 202 198 195 198 202 201 198 200 206 212 212 208 206 199
36 33 23 10 8 2 347 323 300 278 268 61 107 308 224 200 198 193 189 187 185 186 190 195 201 200 200 204 205 210 210 206 209 204 196 202 194 186 185 185 188 189 189 190 195 196 188 195 197 192 198 199 202 209 213 212 207 206 208 210 209 204 196 197 206 203 201 215 214 203 201 204 202 199 201 204 204 201 203 209 215 215 214 213 209
55 49 46 33 22 16 9 352 320 287 244 199 176 258 278 237 211 199 196 193 189 190 193 198 204 203 203 206 205 210 217 213 212 207 195 193 185 182 185 189 193 195 196 195 199 200 194 198 199 199 203 204 209 212 220 225 221 215 214 216 211 209 203 197 208 208 200 215 221 211 203 203 205 203 203 206 205 202 205 211 215 216 218 219 217
68 45 43 38 31 28 23 24 20 325 245 206 186 216 266 274 252 217 205 200 197 196 193 197 205 206 207 209 209 211 218 219 219 218 207 197 191 186 187 195 198 200 204 201 201 205 202 203 202 204 208 209 215 217 220 223 226 222 217 218 213 214 209 202 211 206 203 210 221 229 218 207 209 205 204 207 206 204 206 213 215 215 220 222 221
77 37 37 36 32 35 37 45 50 64 118 185 192 206 235 261 270 259 231 211 207 206 202 200 203 206 209 212 212 214 219 222 224 227 219 204 198 198 196 199 202 206 209 205 206 208 208 211 210 209 213 216 219 226 228 220 226 226 221 221 215 215 213 209 214 206 210 209 210 243 242 223 215 210 207 207 206 205 207 216 217 215 221 223 224
82 55 55 41 41 53 57 65 73 85 102 120 178 205 222 242 257 267 268 257 226 221 218 211 206 206 209 213 214 215 220 224 226 227 224 214 210 216 213 207 207 212 211 205 211 212 210 212 213 214 217 222 223 230 233 222 225 226 222 222 217 215 213 212 217 210 214 215 212 242 252 241 227 217 211 208 206 204 207 216 218 217 222 225 226
90 79 75 55 58 70 72 78 85 91 98 107 131 201 221 236 251 264 270 271 263 250 251 249 230 215 211 214 217 218 219 223 227 226 228 229 225 222 221 218 214 214 212 210 214 217 215 214 218 222 220 220 222 227 229 224 225 224 221 221 220 217 211 212 216 214 215 216 218 228 247 253 240 228 220 212 207 204 208 216 219 218 221 226 227
100 86 77 65 63 74 80 80 81 81 79 80 81 59 255 252 254 262 270 274 272 267 264 264 264 248 226 221 222 223 222 221 226 228 227 231 232 228 225 223 219 217 218 217 216 217 220 222 226 231 230 225 223 226 226 225 225 222 220 217 219 219 213 215 216 216 216 214 219 222 230 244 247 245 234 220 211 205 208 214 218 220 221 225 227
121 88 71 62 60 77 83 77 75 71 65 60 54 42 12 325 294 281 280 281 279 277 274 267 264 260 248 239 233 231 229 223 223 228 228 228 232 233 227 221 218 219 222 221 219 218 220 227 231 231 234 232 228 232 231 229 226 221 219 214 215 217 213 216 217 218 220 215 217 222 225 226 235 246 241 230 218 208 207 212 215 219 223 225 226
139 102 71 60 63 79 77 70 68 63 59 55 50 45 37 20 358 336 313 301 290 286 283 280 275 263 252 247 241 237 237 232 226 226 228 227 230 234 230 224 218 218 224 227 225 222 221 227 231 226 226 231 228 233 231 229 226 220 218 214 211 214 213 215 216 219 223 222 220 223 225 222 225 229 231 236 230 218 211 210 213 217 221 225 227
146 119 90 72 73 84 78 69 64 57 53 49 46 43 39 30 16 1 348 337 315 298 290 287 287 277 261 249 241 237 237 238 233 229 227 226 229 233 235 233 228 221 224 229 227 228 229 232 233 227 221 225 228 231 230 229 228 223 218 214 211 212 212 215 218 220 223 224 224 227 229 225 223 222 219 225 237 234 224 216 213 217 219 221 226
168 149 129 119 101 98 86 73 60 51 45 39 36 33 31 30 25 11 353 343 334 317 301 293 287 278 271 259 246 238 235 237 237 234 231 228 227 231 235 235 233 228 227 232 232 232 235 235 236 235 231 227 225 231 235 233 233 227 218 215 213 213 213 216 220 220 221 225 225 227 231 232 229 227 224 218 223 236 238 230 220 218 219 219 224
190 182 169 173 181 199 177 55 32 29 27 23 23 19 17 18 20 17 4 347 334 326 314 302 292 280 272 263 255 247 241 236 235 236 236 233 229 228 232 233 234 234 233 236 236 234 234 235 234 237 237 231 222 229 238 237 233 224 217 217 215 215 217 217 220 222 222 226 227 227 230 234 234 232 231 224 218 222 237 242 231 224 223 222 224
202 201 198 199 206 223 244 276 311 337 349 354 2 6 6 5 7 8 6 359 339 322 314 309 299 286 276 269 261 254 250 240 236 237 239 239 236 232 232 232 233 235 236 237 238 236 235 234 234 236 239 235 222 221 237 238 228 218 214 218 217 217 221 220 220 223 223 225 228 230 230 232 234 233 229 225 222 220 225 235 233 228 227 228 229
210 210 212 214 218 230 247 265 285 306 319 332 347 357 357 352 354 357 359 357 346 325 308 305 303 292 277 272 267 259 255 249 243 241 241 243 243 240 237 235 233 232 233 234 235 237 237 236 235 235 238 239 230 221 233 236 224 214 212 215 217 220 224 225 224 224 225 227 230 231 229 229 233 233 231 226 221 222 223 224 225 225 228 237 240
217 216 218 220 225 233 245 259 275 296 312 327 341 345 344 344 348 351 353 350 343 331 312 299 298 295 280 268 265 261 257 254 251 248 245 245 245 247 245 241 238 235 234 234 234 236 238 238 237 235 235 240 238 224 226 232 219 209 209 212 217 219 222 227 228 228 230 232 231 230 228 226 229 229 229 227 223 222 223 223 224 221 221 236 246
220 220 219 223 228 233 243 254 267 283 298 312 328 332 332 342 347 348 350 347 340 328 312 298 288 288 286 270 258 256 256 255 254 252 251 250 248 249 250 248 245 241 238 237 234 232 235 234 231 233 235 237 236 221 220 226 216 208 206 208 216 220 224 228 230 231 232 234 232 228 228 227 226 227 229 227 225 224 223 223 224 221 217 223 238
222 222 220 225 230 234 243 252 261 274 287 296 314 324 324 333 340 344 348 346 340 327 303 294 289 283 284 278 260 250 248 249 253 252 251 253 251 250 251 251 250 246 241 236 230 228 234 233 228 231 235 235 233 222 219 222 218 212 206 205 212 217 224 228 229 231 229 230 231 228 228 228 226 227 230 228 225 223 225 225 222 220 218 218 222
222 223 222 226 229 234 243 251 258 268 279 287 297 308 315 325 333 340 346 347 346 339 316 301 297 288 287 291 285 266 251 246 250 255 254 254 254 252 249 252 252 250 245 239 233 230 234 236 233 234 235 236 235 225 217 221 220 214 211 212 211 212 223 226 226 233 231 227 228 228 227 228 229 229 228 227 226 224 225 225 223 221 221 221 219
221 223 225 227 230 235 244 251 257 265 273 279 287 298 313 329 338 344 349 351 351 348 339 319 303 298 300 303 301 288 271 254 248 251 259 258 255 254 251 250 250 252 249 245 240 237 236 238 242 244 241 238 236 223 213 222 222 215 217 220 212 214 228 225 221 230 231 227 228 228 229 228 228 230 228 224 224 227 229 228 226 224 225 229 225
221 225 229 230 231 237 246 253 257 262 269 272 277 289 305 323 336 345 350 353 354 351 344 327 308 304 309 305 299 292 283 272 258 254 258 257 253 254 254 252 250 250 249 246 243 239 238 241 246 250 245 239 235 226 216 220 223 220 222 225 224 228 233 223 218 226 226 227 230 230 231 232 230 229 226 222 224 229 232 232 230 228 229 233 232
224 229 232 232 233 239 248 253 256 261 266 267 269 280 295 312 326 338 347 352 354 352 346 338 323 308 307 309 308 300 290 283 271 264 262 261 259 257 255 252 250 249 246 243 241 236 232 235 240 244 243 238 234 228 218 215 221 223 224 227 232 239 239 226 222 226 226 227 230 229 231 232 231 231 225 222 224 225 226 225 227 230 233 235 235
227 231 234 236 237 243 250 253 254 259 262 263 265 271 284 300 317 331 343 350 354 352 347 345 338 323 313 310 310 309 304 295 281 273 269 269 268 265 262 255 250 248 245 241 239 234 228 228 232 236 238 238 236 233 225 217 217 222 226 226 231 236 240 240 233 231 236 236 232 229 231 231 229 229 226 222 222 222 223 220 218 224 229 231 233
229 234 238 240 242 247 252 254 254 257 258 260 260 264 274 288 304 321 336 345 351 353 348 344 341 337 333 324 313 311 309 302 291 279 272 272 272 272 268 263 256 250 245 240 238 235 229 229 232 234 235 237 238 237 232 225 220 225 229 227 228 235 240 242 240 239 242 243 241 231 224 223 222 225 223 221 219 218 222 221 212 210 216 219 218
231 237 242 245 247 251 254 255 255 255 256 256 255 258 267 278 291 306 321 335 344 349 348 345 343 342 342 339 329 317 309 304 298 286 274 269 267 270 269 266 262 255 246 241 240 239 231 228 232 236 237 239 239 237 235 233 230 229 230 228 228 232 236 239 238 239 240 241 246 240 219 213 216 220 220 218 217 216 219 220 211 201 205 208 200
236 242 247 251 253 256 258 258 256 256 256 256 255 256 263 271 280 292 304 317 330 340 343 344 345 344 346 346 342 335 323 312 303 294 284 273 264 262 265 265 264 259 251 244 242 241 235 230 232 236 237 238 240 239 237 236 234 231 229 230 232 233 235 237 236 235 237 237 240 240 228 220 219 219 219 217 214 215 216 217 212 201 200 202 193
Height
1535 1536 1537 1537 1540 1541 1542 1541 1541 1540 1540 1540 1539 1539 1539 1538 1538 1539 1540 1541 1542 1543 1544 1545 1545 1546 1546 1547 1548 1548 1548 1549 1549 1550 1550 1551 1552 1552 1553 1553 1554 1555 1555 1555 1556 1556 1558 1558 1559 1559 1559 1559 1559 1559 1559 1558 1558 1559 1559 1560 1561 1561 1561 1561 1560 1560 1561 1561 1562 1562 1563 1564 1564 1565 1565 1566 1566 1568 1569 1569 1569 1569 1569 1568 1568
1536 1536 1536 1537 1539 1540 1542 1541 1541 1540 1540 1540 1540 1540 1540 1539 1538 1539 1540 1541 1542 1543 1545 1545 1546 1547 1547 1548 1549 1549 1549 1550 1550 1550 1551 1552 1552 1553 1554 1554 1555 1556 1556 1556 1557 1557 1558 1559 1560 1560 1560 1560 1560 1560 1560 1559 1559 1560 1561 1562 1563 1562 1562 1562 1561 1561 1561 1562 1562 1563 1564 1565 1566 1566 1566 1567 1567 1569 1569 1570 1570 1570 1570 1570 1570
1536 1536 1536 1538 1539 1539 1540 1541 1541 1540 1541 1540 1541 1541 1540 1540 1539 1539 1540 1541 1542 1543 1545 1546 1547 1548 1548 1549 1550 1550 1550 1551 1551 1551 1552 1553 1553 1554 1554 1555 1556 1556 1557 1557 1558 1558 1559 1560 1561 1561 1561 1561 1561 1561 1561 1560 1560 1562 1562 1564 1564 1564 1564 1563 1563 1563 1562 1563 1564 1564 1566 1566 1566 1567 1567 1568 1569 1570 1570 1571 1571 1571 1571 1571 1571
1535 1536 1536 1537 1538 1539 1541 1541 1540 1540 1541 1541 1541 1541 1541 1541 1540 1540 1541 1541 1542 1543 1545 1546 1548 1549 1549 1550 1551 1551 1551 1551 1552 1552 1553 1553 1554 1555 1555 1556 1556 1557 1557 1558 1559 1559 1560 1561 1561 1562 1562 1562 1562 1562 1562 1562 1562 1563 1564 1565 1565 1565 1565 1565 1565 1564 1564 1564 1565 1567 1568 1568 1568 1568 1568 1569 1570 1570 1571 1572 1572 1572 1572 1572 1572
1535 1535 1536 1536 1537 1538 1540 1541 1541 1540 1540 1541 1542 1542 1542 1542 1542 1542 1542 1542 1543 1543 1546 1548 1549 1550 1551 1551 1552 1552 1552 1552 1552 1553 1553 1554 1554 1555 1556 1556 1557 1557 1558 1559 1559 1560 1561 1561 1562 1563 1563 1562 1563 1563 1563 1563 1563 1564 1565 1566 1567 1567 1567 1567 1567 1566 1566 1566 1567 1570 1571 1570 1569 1569 1569 1570 1571 1571 1572 1572 1573 1573 1573 1573 1573
1535 1535 1536 1536 1536 1537 1539 1541 1542 1541 1541 1541 1542 1543 1543 1543 1543 1543 1543 1543 1545 1545 1546 1548 1550 1551 1552 1552 1553 1552 1553 1553 1553 1553 1554 1554 1555 1556 1557 1557 1558 1558 1559 1559 1560 1560 1561 1562 1563 1563 1563 1563 1563 1564 1563 1563 1564 1566 1567 1567 1568 1568 1569 1569 1569 1569 1568 1568 1570 1573 1573 1572 1571 1571 1570 1571 1572 1572 1573 1573 1573 1574 1574 1574 1574
1535 1535 1536 1535 1536 1537 1539 1541 1542 1542 1542 1542 1542 1543 1544 1544 1544 1544 1544 1545 1547 1547 1547 1548 1551 1552 1553 1553 1553 1553 1553 1554 1554 1554 1555 1555 1556 1557 1558 1558 1559 1559 1559 1560 1560 1561 1561 1562 1563 1564 1564 1564 1564 1564 1564 1564 1565 1567 1568 1568 1569 1569 1570 1570 1570 1570 1570 1571 1572 1574 1574 1573 1573 1572 1572 1572 1573 1573 1574 1574 1574 1575 1575 1575 1576
1535 1535 1535 1536 1537 1537 1540 1542 1542 1543 1543 1543 1544 1544 1544 1545 1545 1545 1545 1546 1547 1549 1549 1550 1552 1553 1553 1554 1554 1554 1554 1554 1554 1555 1556 1556 1557 1558 1558 1559 1559 1560 1560 1560 1560 1561 1562 1563 1564 1565 1565 1565 1565 1565 1565 1565 1566 1567 1569 1569 1570 1570 1571 1572 1572 1571 1571 1573 1574 1575 1576 1575 1574 1574 1573 1573 1574 1574 1575 1575 1575 1576 1576 1576 1577
1536 1535 1536 1537 1537 1538 1541 1542 1543 1544 1544 1545 1545 1546 1546 1547 1547 1546 1546 1547 1548 1549 1551 1552 1554 1554 1554 1554 1554 1554 1554 1554 1555 1555 1556 1557 1558 1558 1559 1559 1560 1560 1560 1560 1561 1561 1562 1563 1564 1565 1565 1565 1565 1565 1565 1566 1567 1568 1570 1570 1571 1572 1572 1573 1573 1573 1574 1575 1575 1576 1576 1576 1576 1575 1574 1574 1575 1576 1576 1576 1577 1577 1577 1578 1578
1536 1536 1536 1537 1538 1539 1541 1542 1543 1545 1546 1546 1547 1548 1548 1549 1549 1548 1548 1548 1549 1550 1551 1552 1554 1555 1554 1555 1555 1554 1554 1555 1555 1556 1557 1558 1558 1559 1560 1560 1560 1561 1561 1561 1561 1562 1562 1563 1564 1565 1566 1566 1565 1566 1566 1566 1567 1569 1571 1571 1571 1572 1573 1574 1574 1575 1576 1577 1576 1576 1576 1577 1577 1576 1576 1576 1577 1577 1577 1578 1578 1578 1578 1579 1579
1537 1537 1537 1537 1539 1540 1541 1542 1543 1545 1547 1548 1549 1550 1550 1551 1551 1550 1550 1550 1550 1550 1551 1552 1553 1553 1554 1554 1555 1554 1555 1555 1556 1556 1557 1558 1559 1559 1560 1560 1561 1561 1561 1561 1561 1562 1563 1563 1564 1565 1566 1566 1566 1566 1566 1567 1568 1569 1571 1572 1572 1573 1574 1574 1576 1576 1577 1578 1577 1577 1577 1578 1578 1578 1578 1578 1578 1579 1579 1579 1580 1580 1580 1580 1579
1537 1538 1538 1539 1540 1541 1541 1541 1542 1545 1547 1549 1551 1552 1552 1552 1552 1551 1551 1551 1551 1550 1551 1551 1552 1552 1553 1554 1555 1555 1555 1556 1556 1557 1557 1558 1559 1559 1560 1560 1561 1561 1561 1561 1562 1562 1563 1564 1564 1565 1566 1566 1566 1567 1567 1568 1568 1570 1572 1572 1573 1574 1575 1575 1577 1578 1578 1579 1578 1577 1579 1579 1579 1579 1579 1579 1580 1580 1581 1581 1581 1581 1581 1581 1580
1538 1539 1539 1540 1540 1540 1540 1540 1543 1546 1547 1549 1551 1552 1553 1552 1552 1552 1551 1551 1551 1551 1551 1551 1552 1553 1553 1554 1555 1555 1556 1556 1557 1557 1558 1558 1559 1560 1561 1561 1561 1561 1562 1562 1562 1563 1563 1564 1565 1565 1566 1566 1567 1567 1568 1568 1569 1571 1572 1573 1573 1574 1575 1576 1577 1579 1579 1579 1578 1579 1580 1580 1580 1580 1580 1580 1581 1582 1582 1582 1582 1582 1582 1582 1582
1539 1539 1540 1540 1540 1540 1539 1540 1544 1547 1547 1549 1550 1550 1552 1553 1552 1552 1551 1551 1551 1551 1551 1552 1552 1553 1553 1554 1554 1555 1556 1557 1558 1558 1558 1559 1560 1560 1561 1561 1562 1562 1562 1562 1563 1563 1564 1564 1565 1566 1566 1566 1567 1567 1568 1569 1570 1571 1572 1573 1573 1574 1576 1577 1578 1579 1579 1579 1579 1580 1581 1580 1580 1580 1580 1581 1582 1582 1583 1583 1583 1583 1583 1583 1583
1540 1540 1540 1540 1540 1540 1540 1542 1544 1547 1547 1548 1549 1550 1551 1552 1552 1552 1551 1551 1551 1552 1552 1552 1552 1553 1554 1554 1554 1556 1557 1558 1558 1559 1559 1560 1560 1561 1561 1562 1562 1562 1563 1563 1564 1564 1564 1565 1565 1566 1566 1567 1567 1568 1569 1569 1570 1571 1573 1574 1574 1574 1576 1578 1579 1579 1579 1580 1580 1581 1581 1581 1580 1581 1581 1582 1582 1583 1583 1584 1584 1584 1584 1584 1583
1540 1541 1541 1541 1541 1541 1542 1543 1544 1547 1549 1549 1549 1550 1551 1551 1552 1552 1551 1551 1552 1552 1552 1552 1552 1553 1553 1554 1554 1556 1557 1558 1559 1559 1560 1560 1561 1561 1562 1562 1563 1563 1563 1564 1564 1565 1565 1565 1566 1566 1567 1567 1568 1569 1569 1570 1571 1572 1573 1574 1574 1575 1576 1578 1579 1579 1579 1580 1580 1581 1582 1581 1581 1582 1582 1582 1583 1583 1583 1584 1584 1584 1584 1584 1584
1541 1542 1542 1542 1542 1542 1543 1543 1544 1548 1551 1551 1551 1551 1551 1551 1551 1551 1551 1551 1552 1552 1552 1552 1552 1552 1553 1553 1554 1555 1556 1558 1559 1559 1560 1560 1561 1562 1562 1563 1563 1564 1564 1564 1565 1565 1566 1566 1566 1567 1567 1568 1569 1569 1570 1571 1572 1572 1573 1574 1575 1575 1576 1577 1578 1579 1579 1580 1581 1582 1583 1581 1581 1582 1582 1583 1583 1584 1584 1584 1584 1584 1584 1584 1584
1541 1542 1543 1543 1543 1543 1544 1544 1545 1547 1549 1551 1551 1551 1551 1550 1550 1550 1550 1551 1552 1552 1552 1552 1552 1553 1553 1553 1554 1555 1556 1557 1558 1559 1560 1561 1561 1562 1562 1563 1564 1564 1565 1565 1565 1566 1566 1567 1567 1567 1568 1568 1569 1570 1571 1572 1572 1573 1574 1575 1575 1576 1576 1577 1579 1579 1579 1580 1581 1582 1583 1581 1581 1582 1582 1583 1583 1584 1584 1584 1584 1584 1584 1584 1584
1540 1542 1543 1544 1544 1544 1545 1545 1546 1547 1548 1549 1550 1550 1550 1549 1549 1549 1550 1551 1552 1552 1552 1552 1553 1553 1553 1554 1554 1555 1556 1557 1558 1559 1559 1560 1561 1562 1563 1564 1564 1565 1565 1566 1566 1567 1567 1567 1567 1568 1568 1569 1570 1570 1571 1572 1573 1574 1575 1576 1576 1576 1577 1578 1580 1580 1580 1580 1581 1582 1581 1581 1582 1582 1582 1583 1584 1584 1584 1584 1584 1585 1584 1584 1584
1540 1541 1542 1543 1544 1544 1545 1545 1546 1546 1547 1548 1548 1548 1548 1548 1549 1549 1549 1550 1551 1551 1552 1553 1553 1554 1554 1554 1554 1555 1556 1556 1558 1559 1559 1560 1561 1562 1563 1564 1565 1566 1566 1566 1567 1567 1568 1568 1568 1569 1569 1570 1570 1571 1572 1573 1574 1574 1575 1576 1577 1577 1578 1580 1580 1580 1581 1581 1581 1581 1581 1581 1582 1583 1583 1583 1584 1584 1584 1585 1585 1585 1584 1584 1584
1540 1540 1541 1542 1544 1544 1545 1545 1545 1545 1545 1546 1546 1546 1546 1547 1548 1548 1549 1550 1551 1551 1552 1553 1553 1553 1554 1554 1554 1555 1556 1556 1557 1558 1559 1560 1560 1562 1563 1564 1566 1566 1567 1567 1567 1568 1568 1568 1569 1570 1570 1571 1571 1572 1573 1574 1574 1575 1576 1577 1577 1579 1580 1580 1580 1580 1581 1581 1581 1581 1581 1582 1583 1583 1583 1583 1584 1584 1584 1584 1585 1585 1584 1584 1584
1541 1541 1541 1542 1543 1544 1545 1545 1545 1545 1545 1545 1545 1545 1545 1546 1547 1548 1549 1550 1550 1551 1552 1553 1553 1553 1553 1554 1554 1555 1555 1556 1557 1558 1558 1559 1560 1562 1563 1564 1566 1567 1567 1568 1568 1568 1568 1569 1569 1570 1571 1572 1572 1573 1574 1575 1575 1575 1576 1577 1578 1580 1581 1580 1581 1581 1581 1581 1581 1580 1581 1582 1583 1583 1583 1584 1584 1584 1584 1584 1584 1585 1584 1584 1584
1541 1541 1541 1541 1542 1543 1544 1545 1545 1545 1545 1545 1544 1545 1545 1545 1547 1548 1548 1549 1550 1551 1552 1552 1552 1553 1553 1553 1554 1554 1555 1556 1557 1557 1557 1558 1559 1561 1563 1564 1565 1567 1568 1568 1569 1569 1569 1569 1570 1570 1571 1572 1573 1575 1576 1576 1576 1576 1577 1577 1579 1581 1581 1580 1581 1582 1581 1582 1581 1580 1581 1582 1582 1583 1583 1584 1584 1584 1585 1585 1585 1585 1585 1584 1585
1540 1540 1540 1540 1541 1542 1543 1544 1545 1545 1545 1545 1545 1545 1545 1545 1546 1547 1548 1548 1549 1550 1551 1552 1552 1553 1553 1554 1554 1555 1555 1556 1556 1557 1557 1557 1559 1561 1562 1564 1565 1567 1568 1569 1569 1569 1569 1570 1570 1571 1572 1573 1575 1577 1577 1578 1577 1577 1577 1578 1580 1581 1581 1581 1582 1583 1582 1582 1581 1580 1581 1582 1582 1583 1583 1584 1584 1585 1585 1585 1585 1585 1585 1585 1585
1540 1540 1540 1539 1540 1541 1542 1543 1544 1544 1545 1545 1545 1545 1544 1544 1545 1546 1547 1548 1549 1550 1551 1551 1552 1553 1554 1554 1555 1555 1555 1556 1556 1557 1557 1557 1558 1560 1562 1563 1565 1567 1568 1569 1569 1569 1570 1570 1571 1571 1573 1574 1576 1577 1578 1579 1578 1578 1578 1579 1580 1581 1581 1581 1582 1583 1582 1581 1580 1580 1581 1582 1582 1583 1583 1584 1584 1585 1585 1585 1585 1585 1585 1585 1585
1540 1540 1540 1539 1539 1540 1541 1541 1543 1544 1544 1545 1545 1545 1544 1544 1544 1545 1546 1547 1548 1549 1550 1551 1552 1552 1553 1554 1555 1555 1555 1557 1556 1557 1558 1558 1558 1559 1561 1563 1564 1566 1567 1568 1569 1569 1570 1571 1571 1572 1573 1574 1576 1576 1577 1578 1579 1579 1579 1579 1580 1580 1581 1581 1582 1582 1582 1581 1580 1580 1581 1581 1582 1582 1583 1583 1584 1585 1585 1585 1585 1585 1585 1585 1585
1541 1540 1539 1539 1539 1539 1540 1540 1541 1542 1543 1544 1545 1545 1544 1544 1543 1544 1544 1546 1547 1548 1550 1550 1551 1552 1553 1553 1555 1555 1556 1556 1556 1556 1557 1558 1558 1559 1561 1562 1564 1566 1567 1568 1569 1569 1570 1571 1571 1572 1573 1574 1575 1576 1577 1578 1578 1579 1580 1580 1580 1580 1580 1581 1582 1582 1582 1582 1580 1580 1581 1581 1581 1582 1582 1583 1583 1584 1584 1585 1585 1585 1586 1586 1586
1541 1540 1540 1539 1539 1539 1539 1539 1540 1541 1542 1543 1544 1544 1544 1543 1542 1543 1543 1544 1545 1547 1548 1549 1550 1551 1552 1553 1554 1555 1556 1556 1556 1556 1556 1557 1558 1559 1561 1562 1563 1565 1566 1567 1568 1568 1569 1570 1571 1572 1572 1574 1574 1576 1577 1577 1578 1579 1579 1579 1580 1580 1580 1581 1582 1581 1582 1582 1581 1580 1580 1580 1581 1581 1581 1582 1582 1583 1584 1584 1585 1585 1585 1585 1585
1541 1540 1540 1539 1539 1539 1539 1539 1539 1540 1540 1542 1543 1544 1543 1542 1542 1542 1542 1543 1544 1545 1545 1546 1548 1549 1550 1551 1552 1554 1555 1555 1555 1555 1556 1556 1558 1559 1561 1562 1563 1564 1565 1566 1567 1567 1568 1569 1570 1571 1572 1573 1574 1575 1576 1577 1577 1578 1578 1578 1579 1579 1579 1580 1581 1581 1582 1582 1582 1580 1579 1580 1580 1580 1581 1581 1581 1582 1583 1583 1584 1585 1585 1585 1585
1541 1540 1540 1540 1539 1539 1539 1538 1538 1539 1540 1541 1542 1542 1543 1542 1542 1542 1542 1543 1543 1543 1544 1544 1546 1547 1549 1550 1550 1552 1553 1554 1554 1554 1555 1556 1557 1558 1559 1561 1562 1563 1563 1564 1565 1566 1567 1568 1569 1570 1572 1572 1573 1574 1574 1575 1576 1577 1577 1578 1578 1579 1579 1580 1580 1581 1582 1582 1582 1581 1579 1579 1579 1579 1580 1580 1580 1581 1582 1583 1583 1584 1584 1585 1585
1541 1541 1541 1540 1539 1539 1539 1538 1538 1538 1539 1539 1540 1541 1542 1541 1541 1541 1541 1542 1542 1542 1543 1544 1544 1545 1546 1547 1548 1549 1551 1552 1553 1553 1554 1555 1556 1557 1558 1559 1561 1561 1562 1563 1564 1565 1566 1567 1568 1569 1571 1572 1573 1573 1573 1574 1575 1576 1577 1577 1577 1577 1578 1579 1580 1581 1581 1581 1582 1581 1579 1578 1578 1578 1579 1579 1579 1580 1581 1582 1582 1583 1584 1584 1584
1541 1541 1541 1540 1539 1539 1539 1539 1538 1538 1538 1539 1539 1540 1541 1541 1541 1541 1541 1541 1542 1541 1542 1543 1544 1544 1544 1545 1546 1547 1549 1550 1551 1552 1553 1554 1555 1556 1557 1558 1559 1560 1561 1562 1563 1564 1565 1566 1567 1568 1569 1570 1571 1572 1572 1573 1574 1575 1576 1576 1576 1576 1577 1578 1579 1580 1580 1581 1582 1581 1580 1578 1577 1577 1578 1578 1578 1579 1580 1581 1581 1582 1583 1583 1584
1542 1541 1541 1540 1540 1539 1539 1539 1539 1538 1538 1539 1539 1540 1540 1541 1541 1541 1541 1541 1541 1541 1541 1542 1542 1543 1544 1545 1545 1546 1547 1548 1549 1551 1553 1553 1553 1554 1556 1556 1558 1559 1559 1560 1561 1562 1563 1564 1565 1566 1567 1568 1569 1570 1570 1572 1573 1573 1574 1575 1575 1575 1576 1577 1578 1579 1579 1580 1581 1581 1581 1579 1578 1577 1576 1577 1577 1578 1579 1580 1580 1581 1582 1582 1582
1542 1541 1541 1541 1540 1540 1539 1539 1539 1539 1539 1539 1539 1539 1540 1540 1540 1541 1540 1540 1540 1540 1540 1540 1541 1542 1543 1544 1545 1545 1545 1547 1548 1549 1550 1551 1551 1553 1554 1555 1556 1557 1558 1559 1560 1561 1562 1562 1563 1565 1565 1566 1568 1568 1569 1570 1571 1571 1572 1573 1574 1574 1575 1576 1577 1577 1578 1579 1580 1580 1580 1580 1580 1578 1577 1576 1576 1577 1577 1578 1579 1580 1580 1581 1581
1541 1541 1541 1541 1540 1540 1540 1539 1539 1539 1539 1539 1539 1539 1540 1540 1540 1540 1540 1540 1540 1540 1539 1539 1539 1540 1541 1542 1543 1544 1544 1545 1546 1547 1548 1549 1550 1551 1553 1554 1555 1556 1557 1557 1559 1560 1560 1561 1562 1564 1565 1566 1567 1568 1568 1568 1568 1569 1570 1571 1573 1574 1574 1575 1576 1576 1577 1577 1578 1578 1578 1578 1579 1579 1578 1577 1576 1576 1576 1577 1578 1578 1579 1580 1580
1540 1540 1541 1541 1541 1540 1540 1540 1540 1539 1539 1539 1539 1539 1539 1539 1539 1539 1539 1539 1539 1539 1538 1538 1539 1539 1539 1540 1541 1542 1542 1543 1543 1544 1545 1547 1549 1550 1552 1552 1554 1555 1556 1556 1558 1559 1559 1560 1561 1562 1563 1565 1566 1567 1566 1566 1566 1567 1568 1569 1571 1572 1573 1574 1575 1575 1576 1576 1576 1576 1576 1576 1577 1577 1578 1578 1577 1576 1575 1576 1576 1577 1578 1578 1579
1539 1539 1540 1540 1541 1541 1540 1540 1540 1540 1539 1539 1539 1539 1539 1539 1539 1539 1538 1538 1538 1538 1538 1537 1538 1538 1538 1538 1538 1539 1539 1540 1541 1542 1543 1544 1546 1549 1550 1550 1552 1553 1554 1555 1556 1558 1558 1559 1560 1560 1562 1563 1565 1566 1566 1565 1565 1565 1566 1567 1569 1570 1571 1572 1573 1573 1574 1575 1575 1575 1574 1574 1574 1574 1574 1576 1577 1577 1575 1575 1575 1576 1576 1577 1577
1538 1538 1539 1539 1540 1540 1540 1540 1540 1540 1539 1539 1539 1538 1538 1538 1538 1539 1538 1537 1537 1537 1537 1536 1536 1537 1537 1537 1537 1537 1537 1538 1540 1541 1542 1543 1544 1545 1546 1548 1549 1550 1551 1552 1554 1556 1557 1557 1559 1560 1560 1561 1563 1565 1565 1564 1564 1564 1565 1566 1567 1568 1569 1570 1571 1572 1573 1573 1573 1573 1573 1573 1572 1572 1573 1573 1575 1576 1576 1574 1574 1574 1575 1575 1576
1537 1537 1538 1538 1539 1539 1539 1539 1539 1539 1539 1539 1539 1538 1538 1538 1538 1538 1538 1537 1537 1536 1536 1535 1535 1535 1535 1536 1536 1536 1536 1537 1538 1539 1540 1541 1541 1542 1544 1545 1546 1547 1549 1550 1552 1554 1555 1556 1557 1558 1559 1560 1561 1563 1565 1564 1563 1563 1564 1564 1565 1567 1568 1569 1569 1570 1571 1571 1572 1571 1571 1571 1571 1571 1571 1571 1573 1575 1575 1574 1573 1574 1574 1574 1575
1536 1537 1537 1537 1538 1538 1538 1538 1538 1538 1538 1538 1538 1538 1538 1538 1538 1537 1537 1537 1536 1535 1535 1534 1534 1534 1534 1534 1534 1535 1535 1536 1537 1538 1539 1539 1540 1541 1542 1543 1544 1545 1547 1548 1550 1551 1552 1553 1555 1557 1557 1558 1559 1561 1563 1563 1562 1562 1563 1564 1564 1565 1566 1567 1567 1568 1568 1569 1569 1569 1569 1569 1569 1569 1569 1570 1571 1573 1574 1574 1573 1574 1574 1574 1573
1535 1535 1536 1536 1537 1537 1537 1537 1537 1537 1537 1537 1537 1538 1538 1538 1537 1537 1537 1536 1535 1534 1534 1533 1533 1533 1533 1533 1533 1533 1534 1534 1535 1536 1536 1537 1537 1538 1539 1541 1542 1544 1545 1546 1547 1548 1549 1551 1553 1555 1555 1555 1557 1560 1562 1563 1562 1561 1561 1562 1563 1564 1565 1565 1565 1566 1567 1567 1567 1566 1567 1567 1567 1567 1567 1568 1569 1570 1571 1572 1572 1573 1574 1573 1572
1533 1534 1534 1535 1536 1536 1536 1536 1536 1536 1536 1536 1536 1536 1536 1537 1536 1536 1536 1535 1534 1533 1532 1532 1531 1531 1531 1532 1532 1531 1532 1532 1532 1533 1534 1534 1535 1535 1536 1538 1539 1541 1542 1543 1544 1545 1546 1547 1549 1551 1552 1553 1554 1557 1560 1561 1560 1559 1559 1561 1562 1562 1563 1563 1564 1564 1565 1564 1564 1564 1564 1565 1565 1566 1566 1566 1567 1568 1569 1569 1570 1571 1572 1573 1573
1531 1532 1533 1534 1534 1535 1535 1535 1535 1535 1535 1535 1535 1535 1535 1535 1535 1535 1535 1534 1533 1532 1531 1530 1529 1529 1529 1529 1530 1530 1530 1530 1530 1531 1531 1531 1532 1533 1533 1534 1535 1537 1539 1540 1541 1542 1542 1543 1545 1547 1549 1550 1551 1554 1556 1558 1558 1558 1558 1558 1559 1560 1560 1560 1560 1560 1561 1562 1562 1562 1562 1563 1563 1564 1564 1564 1564 1565 1566 1567 1567 1568 1569 1571 1572
1529 1530 1531 1532 1533 1533 1534 1534 1534 1534 1534 1534 1534 1534 1533 1533 1533 1533 1533 1533 1531 1530 1529 1529 1528 1527 1527 1527 1527 1527 1528 1528 1528 1529 1529 1530 1530 1530 1531 1532 1532 1533 1535 1536 1538 1539 1540 1541 1542 1543 1545 1546 1547 1550 1552 1554 1555 1557 1557 1556 1557 1558 1557 1557 1557 1557 1557 1558 1559 1559 1560 1561 1562 1562 1561 1562 1562 1563 1563 1563 1564 1565 1566 1567 1569
1527 1529 1529 1530 1531 1532 1532 1532 1533 1533 1533 1533 1533 1532 1532 1532 1532 1531 1531 1530 1530 1529 1528 1528 1527 1526 1526 1525 1524 1524 1525 1525 1526 1526 1527 1528 1528 1528 1529 1530 1530 1531 1531 1532 1534 1535 1537 1538 1539 1540 1541 1542 1544 1547 1549 1549 1551 1553 1554 1555 1555 1554 1554 1554 1555 1555 1555 1556 1556 1557 1558 1559 1560 1560 1559 1560 1560 1560 1559 1560 1561 1562 1563 1564 1565
1526 1527 1527 1528 1530 1530 1530 1531 1531 1531 1531 1532 1531 1531 1531 1531 1531 1531 1530 1530 1529 1528 1527 1527 1526 1525 1524 1523 1522 1522 1522 1523 1523 1524 1524 1525 1526 1526 1526 1527 1528 1528 1528 1529 1530 1531 1533 1535 1536 1537 1537 1538 1541 1543 1545 1546 1547 1549 1550 1552 1552 1551 1551 1552 1553 1553 1554 1554 1555 1555 1556 1557 1558 1557 1557 1558 1558 1557 1556 1557 1558 1559 1560 1561 1562
1524 1525 1525 1526 1528 1528 1528 1529 1529 1529 1530 1530 1530 1530 1530 1530 1530 1530 1529 1529 1528 1527 1527 1526 1525 1524 1523 1522 1521 1521 1520 1521 1521 1521 1522 1522 1523 1523 1524 1524 1525 1525 1525 1526 1527 1528 1530 1531 1533 1533 1533 1535 1537 1538 1541 1543 1545 1547 1547 1549 1550 1550 1550 1550 1550 1551 1551 1552 1553 1554 1554 1555 1556 1555 1555 1555 1555 1555 1554 1555 1556 1556 1557 1558 1559
1522 1522 1524 1524 1525 1526 1526 1527 1527 1528 1528 1529 1529 1529 1529 1529 1529 1529 1528 1528 1527 1526 1525 1525 1524 1523 1522 1522 1521 1520 1519 1519 1519 1519 1520 1520 1520 1521 1521 1522 1522 1522 1523 1523 1524 1525 1527 1528 1529 1530 1530 1531 1532 1534 1538 1540 1541 1543 1545 1546 1547 1548 1548 1548 1549 1549 1549 1549 1550 1551 1552 1553 1553 1553 1553 1553 1553 1553 1553 1553 1554 1555 1555 1556 1557
1520 1521 1522 1522 1523 1524 1524 1525 1525 1526 1526 1527 1527 1527 1527 1527 1527 1527 1527 1526 1526 1525 1524 1523 1523 1522 1521 1521 1520 1520 1519 1518 1518 1517 1517 1518 1518 1518 1518 1519 1519 1520 1520 1520 1521 1522 1524 1526 1527 1527 1528 1528 1528 1530 1533 1535 1537 1540 1542 1543 1544 1545 1546 1547 1547 1547 1547 1547 1546 1547 1549 1550 1550 1549 1550 1550 1551 1552 1551 1551 1552 1554 1554 1554 1555
1518 1519 1520 1520 1521 1521 1522 1522 1523 1523 1524 1524 1525 1525 1525 1525 1526 1526 1525 1525 1525 1524 1524 1523 1522 1521 1520 1519 1519 1518 1518 1517 1516 1516 1515 1515 1515 1516 1516 1516 1517 1517 1517 1518 1519 1519 1520 1522 1524 1525 1525 1526 1526 1527 1529 1531 1534 1537 1538 1540 1540 1542 1543 1544 1544 1545 1546 1545 1544 1544 1545 1546 1546 1546 1546 1547 1548 1549 1549 1549 1550 1552 1553 1553 1554
1516 1517 1518 1518 1519 1519 1519 1520 1520 1521 1521 1522 1523 1523 1523 1523 1524 1524 1523 1523 1523 1523 1523 1522 1521 1520 1519 1518 1517 1517 1516 1515 1515 1514 1514 1513 1513 1513 1513 1514 1514 1515 1515 1515 1516 1516 1517 1519 1521 1522 1522 1523 1524 1524 1525 1527 1530 1532 1534 1536 1537 1538 1540 1540 1541 1542 1543 1543 1543 1543 1543 1543 1544 1543 1543 1544 1546 1547 1548 1548 1548 1550 1551 1551 1552